User: anonymous   Login
Location: Unspecified
(0.0000°N, 0.0000°E)
Time: 05:32:38
(UTC+02:00)
Language:

H-2A R/B - Orbit

View from above orbital plane
View from above orbital plane
View from above satellite
View from above satellite

Ground track
Ground track

The orbit data is extracted from the following two-line orbital elements,

1 26899U 01038B   16175.56179509  .00000137  00000-0  12317-3 0  9996
2 26899  27.9478 210.7626 7116471 310.6399   6.5118  2.47142762127630
Epoch (UTC): 23 June 2016 13:28:59
Eccentricity: 0.7116471
inclination: 27.9478°
perigee height: 285 km
apogee height: 33175 km
right ascension of ascending node: 210.7626°
argument of perigee: 310.6399°
revolutions per day: 2.47142762
mean anomaly at epoch: 6.5118°
orbit number at epoch: 12763

The dashed part of the orbit path shows where the satellite is in the earth's shadow,  

DLR